DMSP 5D-2 F13 DEB, 40441

Orbit data source: Space-Track

DMSP 5D-2 F13 DEB, 40441 is space debris in SSO originally from a launch on Fri, 24 Mar 1995 UTC launched from the Air Force Western Test Range (AFWTR). Debris objects in space refer to the collection of defunct objects orbiting the Earth. Examples of debris include non-operational satellites, rocket bodies, and fragments generated from explosions, collisions, or faulty payload assembly.

Loading next visibility...
Identifier
40441, 1995-015AT
Orbit
SSO
Country
Flag of USUS
Related business
Manufacturer
Unknown
Mission
Spacecraft
Bus & Motor
Unknown
Mass
Unknown
Launch date (UTC)
1995-03-24 (31 years ago)
Launch vehicle
Unknown
Launch site
Air Force Western Test Range (AFWTR)
Object type
Payload
Rocket body
Debris
Shape & HBR
Unknown shape, 0.1 m
Radar Cross Section
Small (<0.1 m²)

Expand to show TLE details & history
Last TLE update: 15 hours ago

TLE from 15 hours ago
0 DMSP 5D-2 F13 DEB
1 40441U 95015AT  26127.04954255  .00001657  00000-0  73341-3 0  9995
2 40441  98.8140 151.8944 0020553   2.1425 357.9838 14.24437222577773
Epoch: 2026-05-07T01:11Z
TLE epoch observation values (Epoch: 2026-05-07T01:11:20.476Z)
Latitude
-0.00002°
Longitude
-90.84217°
Altitude
798.534 km
Speed
7.462 km/s
True Right ascension
10h 07m 34s
True Declination
0° 00' 00"
Sunlit
Object was in daylight at epoch
Visualization orbit readout
Latitude
Unknown
Longitude
Unknown
Altitude
Unknown
Speed
Unknown
Apparent Right ascension
Unknown
Apparent Declination
Unknown
Sunlit
N/A
Visualization observer readout
Local Sidereal Time
23:47:59
Azimuth
Unknown
Elevation
Unknown
Doppler factor
Unknown
Orbital elements
Apogee altitude
822.312 km
Perigee altitude
792.774 km
Semi-major axis
7,185.68 km
Eccentricity
0.00206
Inclination
98.814°
RAAN
151.8944°
Arg. of periapsis
2.1425°
True anomaly
357.97549°
Mean anomaly
357.9838°
Eccentric anomaly
357.97965°
Mean motion
3.56321 °/min
Orbital period
101.03 mins
BSTAR
0.00073341
Loading maneuver chart data...
Computing Atmospheric mass density...

Documentation

Showing up to 5 results
|